Temp
-21 -20 -20 -21 -20 -18 -18 -19 -19 -16 -17 -16 -17 -16 -16 -16 -16 -16 -16 -16 -15 -15 -16 -15 -15 -16 -16 -16 -17 -16 -16 -16 -16 -16 -16 -15 -16 -16 -16 -16 -16 -16 -15 -16
-21 -21 -21 -20 -20 -20 -20 -19 -17 -16 -18 -18 -18 -17 -16 -17 -16 -16 -16 -15 -16 -17 -16 -16 -16 -16 -16 -17 -17 -17 -17 -17 -17 -17 -16 -16 -17 -16 -16 -16 -16 -15 -15 -17
-24 -23 -23 -22 -19 -19 -20 -21 -21 -20 -18 -19 -18 -19 -18 -19 -19 -18 -18 -17 -16 -17 -17 -17 -17 -17 -17 -18 -18 -18 -17 -17 -18 -17 -17 -17 -18 -18 -17 -17 -17 -16 -17 -17
-25 -24 -24 -21 -23 -23 -22 -21 -22 -21 -20 -20 -19 -18 -19 -19 -18 -19 -19 -18 -18 -18 -18 -18 -18 -18 -18 -18 -18 -18 -18 -18 -19 -19 -19 -19 -18 -18 -17 -18 -17 -17 -18 -18
-25 -24 -23 -22 -24 -25 -24 -22 -22 -22 -21 -20 -20 -20 -20 -20 -19 -19 -19 -19 -19 -19 -20 -20 -21 -21 -20 -19 -19 -20 -20 -20 -20 -20 -20 -20 -20 -20 -20 -20 -19 -19 -19 -19
-26 -25 -24 -26 -25 -25 -25 -23 -23 -22 -22 -21 -21 -20 -21 -21 -20 -20 -19 -20 -20 -20 -21 -22 -21 -21 -21 -20 -20 -21 -21 -21 -21 -21 -20 -20 -20 -20 -20 -20 -21 -20 -20 -19
-25 -26 -25 -25 -25 -25 -24 -23 -23 -23 -22 -22 -22 -21 -21 -21 -20 -20 -20 -20 -20 -20 -22 -22 -22 -22 -22 -21 -21 -21 -21 -21 -21 -21 -21 -21 -21 -22 -22 -21 -21 -21 -21 -20
-26 -26 -26 -25 -25 -25 -24 -24 -23 -23 -23 -23 -22 -22 -22 -22 -22 -22 -22 -23 -23 -22 -22 -23 -22 -22 -22 -22 -22 -23 -23 -23 -23 -23 -23 -23 -23 -23 -23 -23 -23 -23 -22 -22
-28 -27 -27 -26 -25 -24 -24 -25 -24 -24 -23 -23 -23 -23 -23 -23 -23 -23 -23 -23 -23 -23 -23 -23 -23 -23 -23 -23 -23 -24 -23 -23 -23 -23 -23 -23 -23 -23 -23 -23 -23 -23 -23 -23
-28 -28 -27 -26 -26 -25 -24 -25 -24 -24 -24 -24 -23 -24 -24 -24 -24 -24 -23 -23 -23 -23 -23 -23 -23 -23 -23 -23 -24 -24 -23 -23 -24 -24 -24 -24 -24 -23 -23 -23 -23 -23 -23 -24
-29 -28 -27 -26 -26 -26 -26 -25 -25 -24 -24 -24 -24 -24 -24 -24 -24 -24 -23 -23 -23 -24 -24 -24 -24 -24 -24 -24 -24 -24 -24 -24 -24 -24 -24 -24 -23 -24 -23 -23 -23 -24 -24 -24
-30 -29 -28 -27 -27 -26 -26 -26 -25 -24 -25 -25 -25 -24 -24 -24 -24 -24 -24 -24 -24 -24 -24 -24 -24 -24 -24 -24 -24 -24 -25 -24 -25 -24 -24 -24 -24 -24 -24 -24 -24 -24 -24 -24
-29 -29 -28 -28 -27 -27 -27 -27 -26 -25 -25 -25 -25 -25 -25 -25 -25 -25 -25 -25 -24 -24 -25 -25 -25 -25 -25 -25 -25 -25 -25 -25 -25 -24 -24 -24 -24 -24 -24 -24 -24 -24 -24 -24
-30 -29 -28 -28 -28 -28 -27 -27 -27 -26 -26 -25 -25 -25 -25 -25 -25 -25 -25 -25 -25 -26 -26 -25 -25 -25 -25 -25 -25 -25 -25 -25 -25 -25 -25 -24 -25 -24 -24 -24 -24 -24 -24 -24
-29 -29 -29 -29 -28 -28 -27 -27 -27 -26 -26 -26 -26 -25 -26 -26 -26 -26 -26 -26 -26 -26 -26 -26 -26 -26 -26 -26 -26 -25 -25 -25 -25 -25 -25 -25 -25 -25 -25 -24 -24 -24 -24 -24
-29 -29 -29 -29 -29 -28 -28 -28 -27 -27 -27 -27 -26 -26 -26 -26 -26 -26 -26 -26 -26 -26 -26 -26 -26 -26 -26 -26 -26 -26 -25 -25 -25 -25 -26 -26 -26 -26 -26 -26 -25 -25 -25 -25
-29 -29 -29 -29 -30 -29 -28 -28 -27 -27 -27 -27 -27 -27 -27 -27 -26 -27 -26 -26 -26 -27 -27 -27 -27 -26 -26 -26 -26 -26 -26 -26 -26 -26 -26 -26 -27 -27 -27 -27 -26 -26 -26 -26
-29 -29 -30 -30 -30 -30 -29 -28 -28 -28 -27 -27 -27 -27 -27 -26 -26 -26 -26 -26 -26 -27 -27 -27 -27 -27 -27 -26 -26 -26 -26 -26 -26 -26 -26 -27 -27 -27 -27 -27 -27 -27 -26 -26
-30 -30 -30 -31 -31 -31 -30 -29 -28 -28 -28 -28 -27 -27 -27 -27 -27 -27 -27 -27 -27 -28 -28 -28 -28 -27 -27 -27 -27 -27 -26 -27 -27 -27 -27 -27 -27 -28 -28 -28 -28 -28 -27 -27
-30 -30 -31 -31 -31 -31 -31 -29 -29 -28 -28 -28 -28 -27 -27 -27 -27 -27 -27 -28 -29 -29 -29 -29 -28 -28 -27 -27 -27 -27 -27 -27 -27 -27 -27 -27 -28 -28 -28 -28 -28 -28 -28 -27
-30 -30 -30 -30 -30 -30 -30 -29 -29 -28 -28 -28 -28 -27 -27 -28 -28 -28 -28 -28 -29 -29 -29 -29 -28 -28 -28 -27 -27 -27 -27 -27 -27 -27 -27 -28 -28 -28 -28 -28 -28 -29 -29 -28
-30 -30 -30 -29 -29 -29 -29 -29 -29 -29 -28 -28 -28 -28 -28 -28 -28 -28 -28 -29 -29 -30 -29 -29 -28 -28 -28 -27 -27 -27 -27 -27 -27 -27 -27 -28 -28 -28 -29 -29 -29 -29 -29 -29
-29 -29 -29 -29 -29 -29 -29 -29 -29 -28 -28 -28 -28 -28 -28 -28 -28 -28 -28 -28 -29 -29 -29 -28 -28 -28 -28 -28 -27 -27 -27 -27 -27 -27 -28 -28 -28 -29 -29 -30 -30 -30 -30 -30
-29 -29 -29 -29 -29 -29 -29 -29 -29 -29 -28 -28 -28 -28 -28 -29 -28 -28 -28 -28 -28 -28 -28 -28 -28 -28 -28 -28 -27 -28 -27 -27 -27 -27 -28 -28 -29 -29 -29 -30 -31 -31 -31 -30
-29 -29 -29 -29 -29 -29 -29 -28 -28 -28 -28 -28 -28 -28 -28 -28 -28 -28 -28 -28 -28 -28 -29 -29 -28 -28 -28 -28 -28 -28 -28 -28 -27 -28 -28 -28 -29 -29 -29 -30 -29 -29 -30 -29
-29 -29 -29 -29 -29 -29 -29 -29 -28 -28 -28 -28 -28 -28 -28 -28 -28 -28 -28 -29 -30 -30 -30 -30 -29 -29 -29 -28 -28 -28 -28 -28 -28 -28 -28 -29 -29 -29 -29 -29 -29 -29 -29 -29
-30 -30 -30 -29 -29 -29 -29 -29 -29 -29 -28 -28 -28 -28 -28 -29 -29 -29 -30 -31 -32 -32 -32 -32 -31 -30 -29 -29 -29 -29 -29 -29 -29 -29 -29 -29 -29 -29 -29 -29 -29 -29 -29 -29
Height
5478 5482 5485 5483 5492 5498 5494 5493 5487 5490 5492 5506 5510 5512 5510 5507 5510 5511 5516 5522 5527 5530 5533 5535 5537 5540 5543 5546 5550 5553 5555 5556 5558 5560 5562 5564 5566 5568 5569 5570 5570 5573 5576 5574
5462 5462 5464 5466 5474 5476 5480 5482 5477 5483 5485 5489 5493 5497 5503 5508 5501 5495 5495 5504 5511 5516 5520 5522 5525 5527 5529 5533 5536 5539 5542 5546 5547 5549 5548 5549 5552 5553 5555 5556 5559 5558 5553 5553
5446 5454 5448 5440 5456 5464 5468 5468 5468 5466 5476 5474 5478 5485 5490 5494 5491 5491 5492 5494 5496 5501 5506 5510 5513 5516 5518 5520 5523 5527 5529 5530 5532 5535 5538 5540 5542 5545 5544 5543 5543 5545 5545 5547
5436 5441 5429 5446 5441 5441 5441 5448 5452 5455 5462 5464 5465 5471 5477 5478 5477 5481 5483 5484 5488 5490 5492 5494 5499 5502 5504 5509 5514 5516 5517 5518 5518 5519 5521 5522 5524 5526 5529 5530 5534 5536 5537 5537
5422 5424 5424 5427 5428 5429 5427 5429 5435 5441 5447 5452 5454 5457 5466 5468 5470 5472 5474 5474 5477 5481 5482 5487 5490 5491 5494 5497 5498 5500 5502 5504 5505 5506 5507 5508 5511 5512 5514 5516 5517 5521 5522 5524
5415 5413 5412 5411 5414 5415 5416 5418 5428 5426 5433 5440 5442 5446 5453 5455 5457 5461 5465 5467 5469 5470 5474 5478 5482 5484 5487 5486 5487 5490 5491 5492 5493 5492 5492 5494 5495 5497 5499 5501 5503 5503 5507 5508
5405 5406 5408 5404 5407 5408 5411 5415 5412 5415 5420 5427 5432 5439 5440 5445 5444 5451 5455 5458 5462 5464 5467 5471 5475 5477 5480 5477 5478 5480 5481 5479 5478 5480 5479 5479 5480 5482 5483 5484 5485 5488 5490 5489
5397 5398 5398 5396 5399 5401 5403 5406 5407 5408 5413 5416 5420 5425 5430 5431 5434 5440 5444 5448 5451 5452 5456 5463 5467 5470 5472 5467 5467 5468 5469 5466 5465 5466 5466 5464 5463 5466 5465 5465 5467 5470 5472 5475
5390 5390 5391 5390 5391 5394 5397 5400 5402 5406 5409 5410 5412 5416 5419 5422 5424 5430 5434 5439 5441 5443 5448 5456 5460 5461 5458 5453 5456 5459 5457 5454 5455 5451 5451 5450 5449 5450 5449 5450 5452 5454 5456 5459
5383 5384 5386 5388 5387 5388 5391 5393 5396 5400 5404 5407 5406 5406 5410 5414 5420 5425 5429 5430 5429 5436 5442 5447 5448 5448 5446 5446 5448 5450 5447 5446 5442 5438 5439 5438 5439 5435 5433 5433 5435 5437 5440 5442
5375 5378 5380 5383 5383 5384 5386 5388 5391 5394 5397 5399 5399 5400 5403 5409 5414 5419 5419 5420 5427 5432 5435 5439 5440 5440 5436 5438 5438 5438 5438 5438 5436 5434 5433 5432 5428 5420 5415 5414 5417 5421 5425 5429
5368 5370 5373 5375 5378 5379 5380 5383 5387 5388 5391 5395 5394 5396 5399 5403 5407 5410 5414 5418 5423 5426 5428 5430 5431 5431 5432 5433 5434 5435 5435 5433 5431 5429 5427 5423 5419 5414 5408 5405 5405 5408 5412 5417
5361 5361 5364 5369 5371 5376 5376 5377 5383 5384 5386 5387 5390 5391 5395 5400 5403 5408 5411 5414 5417 5420 5422 5424 5426 5427 5428 5430 5429 5430 5429 5427 5425 5422 5418 5414 5411 5406 5403 5398 5394 5397 5401 5404
5350 5351 5356 5360 5365 5367 5371 5372 5377 5380 5381 5383 5386 5388 5391 5396 5400 5403 5406 5409 5411 5414 5417 5419 5420 5421 5422 5423 5423 5423 5422 5420 5418 5415 5411 5407 5404 5401 5397 5394 5389 5390 5391 5394
5341 5341 5343 5348 5354 5359 5363 5366 5370 5374 5376 5379 5380 5383 5386 5390 5395 5398 5401 5403 5406 5409 5411 5412 5414 5416 5416 5416 5416 5415 5414 5413 5410 5406 5402 5399 5396 5392 5390 5388 5386 5383 5384 5386
5335 5335 5335 5336 5340 5346 5354 5359 5363 5367 5372 5375 5378 5382 5384 5387 5391 5394 5396 5399 5401 5403 5405 5407 5408 5409 5410 5409 5409 5408 5406 5404 5401 5397 5395 5392 5389 5386 5384 5382 5381 5379 5379 5381
5328 5328 5329 5329 5330 5332 5342 5350 5357 5362 5367 5370 5375 5378 5381 5384 5387 5390 5391 5394 5396 5398 5400 5401 5402 5402 5403 5402 5402 5400 5399 5397 5394 5392 5389 5386 5383 5381 5380 5379 5379 5379 5379 5380
5324 5321 5320 5321 5322 5323 5330 5340 5348 5356 5362 5367 5371 5375 5378 5381 5383 5384 5386 5388 5390 5391 5393 5394 5395 5396 5395 5395 5394 5393 5392 5390 5387 5386 5383 5380 5377 5375 5374 5373 5373 5375 5376 5378
5322 5318 5315 5313 5314 5317 5323 5330 5341 5351 5356 5361 5366 5370 5372 5374 5377 5379 5380 5380 5382 5384 5385 5386 5387 5388 5388 5388 5387 5385 5384 5383 5381 5378 5374 5371 5369 5368 5368 5367 5366 5366 5369 5371
5321 5318 5314 5312 5311 5314 5318 5325 5335 5345 5352 5357 5360 5363 5366 5367 5369 5371 5372 5373 5374 5376 5378 5379 5380 5381 5381 5380 5379 5378 5377 5375 5373 5370 5367 5363 5361 5361 5360 5360 5359 5358 5360 5363
5321 5319 5318 5316 5315 5317 5320 5327 5334 5340 5347 5351 5353 5358 5361 5364 5364 5364 5365 5366 5366 5369 5370 5371 5372 5373 5373 5372 5371 5370 5368 5367 5364 5361 5358 5355 5353 5352 5350 5350 5350 5350 5350 5353
5326 5323 5322 5322 5321 5324 5327 5332 5336 5340 5344 5348 5351 5355 5356 5357 5358 5358 5357 5358 5359 5360 5361 5363 5363 5363 5363 5363 5362 5361 5360 5358 5355 5351 5348 5345 5344 5342 5340 5339 5339 5339 5339 5342
5330 5328 5327 5326 5327 5328 5330 5333 5336 5340 5342 5345 5348 5349 5350 5351 5352 5352 5352 5352 5352 5352 5353 5353 5354 5354 5354 5353 5352 5352 5351 5348 5345 5342 5339 5337 5336 5333 5331 5329 5328 5327 5328 5331
5330 5330 5329 5329 5329 5329 5330 5331 5333 5335 5337 5341 5343 5343 5345 5345 5345 5346 5345 5344 5344 5343 5343 5344 5344 5344 5344 5343 5343 5342 5341 5338 5336 5333 5330 5329 5328 5326 5323 5321 5317 5316 5319 5324
5328 5327 5326 5327 5327 5328 5328 5329 5329 5332 5334 5335 5337 5337 5338 5338 5338 5337 5335 5333 5331 5329 5329 5330 5331 5332 5333 5333 5333 5332 5330 5328 5326 5324 5322 5321 5321 5320 5318 5317 5317 5317 5319 5321
5322 5321 5321 5321 5321 5322 5323 5324 5325 5326 5327 5329 5329 5330 5330 5330 5329 5327 5325 5319 5311 5307 5309 5313 5317 5320 5322 5322 5322 5321 5320 5318 5317 5315 5314 5314 5314 5314 5313 5313 5314 5314 5315 5316
5317 5315 5315 5314 5314 5314 5314 5316 5318 5319 5320 5321 5321 5322 5322 5322 5321 5319 5315 5309 5304 5301 5300 5302 5305 5309 5311 5312 5313 5312 5311 5310 5309 5309 5308 5307 5307 5308 5308 5308 5308 5309 5310 5311
Wind_Speed
75 69 65 60 58 70 74 73 67 63 58 56 47 39 33 44 62 62 64 64 63 65 64 62 62 56 52 43 34 36 42 42 45 52 54 55 55 57 62 62 68 67 64 65
78 80 82 79 70 64 64 73 84 83 63 57 60 53 46 40 47 54 58 60 66 63 63 65 64 59 53 41 36 32 31 41 45 41 49 51 53 55 55 59 54 63 69 48
61 60 69 82 83 77 70 64 61 71 75 67 60 43 48 40 37 34 29 44 62 52 45 35 34 34 37 31 33 38 41 40 42 48 45 48 46 47 42 42 45 50 33 40
56 54 63 57 64 67 78 75 68 72 67 64 65 71 56 46 42 35 37 38 45 40 34 32 35 33 36 39 43 42 37 36 34 35 37 37 42 46 48 44 52 59 44 49
49 49 51 51 48 42 47 74 66 56 62 70 63 62 45 44 38 38 38 39 36 38 22 24 21 18 23 31 34 26 26 27 27 30 31 32 33 36 40 41 44 47 49 47
24 24 26 28 27 28 31 45 42 49 46 47 41 45 42 38 40 39 47 40 35 29 21 18 17 18 20 26 26 26 29 32 34 36 40 41 41 42 43 49 56 54 53 60
26 25 20 26 19 18 20 18 30 38 42 46 37 37 40 41 45 43 34 30 30 27 18 17 18 20 21 21 25 29 33 34 36 37 39 42 45 46 50 56 59 62 64 61
29 24 29 27 23 21 25 25 19 21 22 32 32 32 30 28 28 27 25 26 25 21 20 24 22 23 25 23 25 26 28 30 32 34 37 43 48 48 50 49 51 54 56 66
27 24 22 26 24 33 28 26 28 25 28 22 28 29 27 26 28 29 30 30 29 24 24 27 26 28 26 24 26 29 31 33 36 36 39 41 44 46 45 46 48 51 50 48
25 25 21 13 12 22 30 29 26 23 24 26 28 28 29 30 29 29 30 30 28 25 25 26 25 25 25 25 25 28 31 33 35 38 33 33 37 43 50 53 53 50 50 50
25 21 27 17 14 9 16 24 30 22 19 32 33 35 36 35 31 28 26 27 26 25 24 24 23 20 18 18 23 23 29 32 31 30 29 28 31 28 33 43 48 46 45 44
27 27 29 33 15 22 18 9 26 26 26 24 24 31 29 28 29 27 24 24 24 22 19 18 17 20 21 19 16 19 14 13 11 12 15 20 28 30 29 28 35 40 45 43
32 33 31 27 30 19 14 15 12 23 23 32 32 30 28 28 25 25 24 22 22 19 18 18 18 19 18 18 17 18 21 24 23 23 28 26 33 32 27 31 31 39 38 40
38 41 35 33 26 27 23 18 16 21 16 21 34 35 33 28 26 25 23 22 21 21 22 20 20 22 24 25 24 23 22 24 28 30 31 34 38 41 28 24 18 25 30 33
26 30 31 35 37 29 29 24 22 26 18 16 23 33 28 26 26 25 26 25 25 26 25 22 23 23 21 21 24 24 25 26 28 32 35 40 45 41 28 19 19 17 23 30
20 19 20 28 36 43 34 30 28 27 23 19 23 19 18 21 20 22 23 24 26 28 28 26 25 23 21 22 25 25 25 25 30 34 38 39 38 31 24 20 17 17 16 22
19 22 23 25 27 35 43 38 34 28 28 26 22 16 18 17 19 21 20 23 27 29 31 30 29 26 22 22 25 23 24 25 28 29 34 37 34 26 23 21 19 18 16 19
11 15 22 24 26 33 36 41 38 31 31 28 24 20 22 24 26 23 23 26 29 30 31 29 28 27 24 24 26 25 26 26 27 31 35 36 29 26 24 25 29 21 23 25
8 6 11 17 22 27 27 36 36 30 29 28 26 24 25 26 30 33 32 30 32 30 28 26 28 28 29 27 26 28 28 30 32 35 37 34 26 25 23 25 29 30 24 24
11 7 7 9 14 20 27 35 34 32 27 25 23 24 27 19 28 37 37 33 29 29 29 28 29 29 30 30 28 30 32 35 38 36 37 31 25 24 24 25 26 28 29 27
14 10 3 8 13 15 21 29 32 29 25 26 21 21 28 24 20 21 25 30 30 27 29 31 31 31 29 28 28 31 33 37 38 36 38 28 25 29 31 31 30 31 34 28
11 10 8 9 6 12 16 19 22 24 24 20 21 27 16 14 13 21 30 32 32 30 32 31 29 26 26 27 29 31 34 36 34 38 35 25 25 28 29 30 30 34 37 37
14 5 4 5 5 6 16 16 15 21 23 24 25 20 14 15 17 18 20 23 27 31 32 31 30 29 26 26 27 30 34 34 36 38 32 26 23 25 26 25 31 32 31 30
14 9 5 3 5 9 16 16 14 12 12 22 24 28 20 24 24 23 25 27 30 31 32 33 31 30 30 31 32 35 36 36 38 36 30 26 23 21 22 22 21 24 24 22
17 15 13 10 12 11 11 11 13 17 18 19 22 23 24 26 29 32 36 40 44 45 44 42 39 37 35 34 34 36 37 38 36 31 27 25 21 16 13 15 14 10 14 18
20 17 15 16 16 20 23 21 20 20 22 25 27 29 31 32 34 36 35 39 39 38 44 45 41 38 36 35 33 33 32 32 29 26 24 23 22 19 13 20 16 12 14 14
19 17 18 18 19 18 22 27 26 24 24 25 27 28 29 27 24 23 22 20 17 15 16 22 25 26 26 26 25 26 26 25 24 22 20 20 20 21 19 17 18 22 22 20
Wind_Direction
264 261 252 252 248 246 248 254 262 261 260 247 252 247 243 239 245 246 252 254 255 257 260 261 266 270 270 269 259 250 250 256 248 245 249 253 252 254 256 257 258 256 251 258
263 264 264 263 251 250 253 247 254 251 257 257 260 260 242 226 225 243 258 259 251 255 258 263 267 267 263 256 257 265 259 246 248 255 246 245 249 249 253 258 254 256 248 260
266 266 269 264 251 253 259 261 263 262 259 264 263 244 235 249 236 236 230 232 238 241 245 250 253 251 254 262 272 270 273 275 278 282 281 265 280 282 264 252 244 248 260 266
276 269 270 271 268 274 267 263 256 262 263 267 271 261 266 268 265 268 261 259 266 266 263 267 276 274 269 270 279 281 274 277 277 277 277 279 278 279 281 279 273 271 258 270
278 275 277 271 273 255 265 264 269 268 260 263 267 270 253 258 256 249 253 251 250 259 265 262 257 247 258 269 271 270 274 279 282 283 281 276 272 268 266 262 259 257 257 255
272 276 273 264 264 271 273 270 265 266 252 258 248 244 251 249 256 258 260 268 259 259 254 244 256 258 265 272 275 282 289 293 293 293 294 292 284 278 260 249 249 252 245 250
264 266 268 273 258 252 248 264 246 252 248 247 246 236 243 247 256 256 252 252 256 253 239 247 258 262 255 268 282 287 294 294 293 285 282 275 276 264 256 249 249 247 244 240
232 243 242 247 251 245 251 238 254 217 239 236 234 233 235 231 234 234 223 212 209 220 224 226 235 242 254 274 274 277 267 263 266 267 268 265 264 267 266 265 262 259 257 253
240 244 253 248 247 245 252 244 241 234 218 226 229 223 221 211 203 202 207 211 206 213 218 230 240 240 251 266 270 271 269 270 275 278 282 285 274 269 261 262 260 259 259 257
258 250 248 234 231 242 243 243 252 235 218 221 222 209 207 207 205 206 209 213 207 217 226 237 246 249 262 269 275 281 285 288 293 289 283 287 279 270 265 264 260 255 251 252
267 258 236 225 225 225 219 226 234 239 240 232 230 222 209 207 206 214 215 213 220 223 228 237 245 265 283 290 299 303 297 289 281 282 279 284 294 307 276 258 255 251 250 248
272 256 240 246 224 249 252 226 223 232 239 217 224 229 215 211 216 210 209 215 221 225 242 250 272 283 282 285 281 286 285 293 298 301 307 306 317 320 321 286 252 248 249 247
264 262 251 241 246 231 223 250 223 200 211 222 221 220 203 205 204 212 215 217 224 228 239 243 248 252 258 253 253 265 286 292 300 307 323 322 335 325 317 315 258 247 245 246
258 263 256 247 243 244 224 217 229 224 220 233 222 216 205 209 215 219 220 219 219 224 233 242 249 249 252 257 259 272 279 295 306 309 320 323 324 326 308 304 301 246 245 242
281 271 266 252 243 240 233 225 231 221 206 226 228 223 200 207 216 222 226 222 218 223 231 237 241 251 259 266 266 271 284 293 298 316 323 317 320 312 296 294 293 304 260 240
274 260 254 254 246 242 230 222 214 226 211 209 207 199 201 202 212 223 227 227 227 229 233 237 244 251 260 266 262 269 281 297 311 319 319 319 313 304 290 295 291 292 282 256
270 271 244 246 243 240 233 223 211 204 203 214 207 216 216 222 231 233 233 239 237 233 238 241 246 251 260 271 275 278 289 300 310 315 319 315 308 297 287 269 276 262 246 231
306 282 243 247 247 235 224 218 217 215 204 213 215 222 225 227 236 245 249 253 246 242 244 248 252 255 266 274 281 284 292 303 310 311 315 315 301 292 286 271 260 246 242 238
315 292 265 257 238 228 211 197 202 212 204 213 217 228 231 238 241 246 251 254 250 239 240 245 252 258 267 275 285 287 292 301 304 307 314 313 297 287 279 274 268 269 235 231
350 332 287 253 217 207 200 183 188 193 203 216 219 229 238 264 256 254 258 250 234 238 247 251 255 263 272 279 284 287 290 295 302 304 310 306 289 278 273 265 274 271 271 245
7 15 25 152 147 161 174 179 188 191 202 222 226 245 254 250 258 259 255 249 239 245 253 256 261 268 273 277 285 289 291 293 299 304 311 299 283 277 266 262 262 266 261 257
23 33 71 122 101 138 159 181 195 201 206 222 230 250 237 246 264 276 263 252 251 251 256 258 259 262 271 277 282 288 290 294 298 308 308 291 285 281 272 265 270 267 261 250
16 29 66 116 180 182 160 179 199 214 225 232 238 248 250 275 283 277 273 273 269 266 262 262 260 261 267 274 283 285 291 298 303 308 302 282 286 286 276 278 269 273 262 252
333 332 332 201 192 206 222 234 231 223 228 227 247 241 247 263 272 272 271 269 267 264 260 261 264 266 269 274 278 285 290 295 301 302 293 279 282 291 281 293 285 260 244 229
310 294 287 262 250 242 236 241 243 246 248 246 252 251 257 263 267 273 278 279 277 272 266 262 262 263 268 273 279 286 293 296 298 295 287 275 274 283 263 274 271 296 239 249
294 277 267 275 264 250 240 238 239 243 247 249 251 254 260 267 275 283 286 291 287 272 257 253 256 260 265 272 279 287 289 290 291 290 280 270 263 262 260 249 256 254 238 237
288 283 282 279 265 272 250 239 243 250 255 256 256 258 262 267 274 286 304 319 308 298 278 258 251 253 258 264 269 275 283 287 285 281 277 266 262 260 255 253 256 244 250 250